Вернуться в каталог

TIANHUI 2-01A

АктивенНаукаSSO
NORAD 44207·PAYLOAD·🇨🇳 China

Запущен Apr 29, 2019 с Taiyuan Satellite Launch Center

Loading…

Ближайшие Пролёты (ближайшие 24 часа)

TLE

СвежийSource: Space-Track

Эпоха: Sep 14, 2026, 11:40 UTC

1 44207U 19024A   26257.48631281  .00001255  00000-0  67380-4 0  9999
2 44207  97.4848 260.2535 0001543 106.3184 253.8219 15.16747988115674

Отслеживайте TIANHUI 2-01A в реальном времени с AllMySat

Download on the App Store